Regional Weather Roundup
Issued by NWS Wakefield, VA

Home | Current Version | Previous Version | Graphics & Text | Print | Product List | Glossary On
Versions: 1 2 3 4 5 6 7 8 9 10 11 12 13 14 15 16 17 18 19 20 21 22 23 24 25 26 27
000
ASUS41 KAKQ 170810
RWRAKQ

REGIONAL WEATHER ROUNDUP
NATIONAL WEATHER SERVICE WAKEFIELD VA
400 AM EDT THU APR 17 2014

Note: "fair" indicates few or no clouds below 12,000 feet with no
significant weather and/or obstructions to visibility. * = Denotes
station may not report precipitation (e.g., rain,snow,etc.),
thunder or fog.

VAZ042-051-052>054-056-170900-
NORTHERN VIRGINIA

CITY           SKY/WX    TMP DP  RH WIND       PRES   REMARKS
WASH NATIONAL  CLEAR     40  26  57 NE7       30.56S
DULLES         CLEAR     28  24  85 CALM      30.55R
FORT BELVOIR   CLEAR     30  29  94 CALM      30.56S
QUANTICO       CLEAR     34  29  82 NW6       30.57R
FREDERICKSBRG* CLEAR     34  28  80 CALM      30.55R
STAFFORD*      CLEAR     29  29 100 CALM      30.59R
WARRENTON      CLEAR     29  29 100 CALM      30.55R
CULPEPER*      CLEAR     32  25  74 CALM      30.56R
MANASSAS*      CLEAR     28  28 100 CALM      30.56R
LEESBURG*      CLEAR     34  27  75 N5        30.56S
WINCHESTER     CLEAR     30  23  74 CALM      30.53S
$$

VAZ048-049-060>072-079>083-170900-
CENTRAL AND SOUTH CENTRAL VIRGINIA...AND NORTH CENTRAL NORTH CAROLINA

CITY           SKY/WX    TMP DP  RH WIND       PRES   REMARKS
RICHMOND       CLEAR     35  27  72 CALM      30.53R
CHESTERFIELD*  NOT AVBL
HANOVER        CLEAR     30  27  88 CALM      30.55R
TAPPAHANNOCK*  CLEAR     30  27  89 CALM      30.54R
CHARLOTTSVILLE CLEAR     31  22  69 CALM      30.53R
ORANGE*        CLEAR     32  27  80 CALM      30.55S
LOUISA*        CLEAR     28  25  86 CALM      30.52S
FARMVILLE*     CLEAR     28  28 100 CALM      30.51S
SOUTH HILL*    CLEAR     32  28  86 CALM      30.56R
ROANOKE RAPIDS SUNNY     34  32  93 CALM      30.50S
RALEIGH        CLEAR     35  28  75 NE5       30.48S
$$

VAZ088>098-170900-
SOUTHEAST VIRGINIA

CITY           SKY/WX    TMP DP  RH WIND       PRES   REMARKS
NORFOLK        PTCLDY    42  31  64 NE13      30.50R
VIRGINIA BEACH PTCLDY    42  31  64 NE12      30.50R
NORFOLK NAVAL  PTCLDY    43  31  62 E13       30.52R
WEST POINT*    CLEAR     32  29  90 CALM      30.55R
NEWPORT NEWS   CLEAR     44  32  62 NE8       30.52R
LANGLEY AFB    MIX PCPN  42  33  69 NE14      30.52R
FORT EUSTIS    CLEAR     38  33  84 NE2       30.51R
WILLIAMSBURG*  CLEAR     37  36  93 CALM      30.53R
FRANKLIN*      CLEAR     34 N/A N/A CALM      30.52R
WAKEFIELD      CLEAR     31  28  89 CALM      30.52R
$$

VAZ020-022-025-037-045-170900-
WESTERN AND SOUTHWEST VIRGINIA

CITY           SKY/WX    TMP DP  RH WIND       PRES   REMARKS
STAUNTON*      CLEAR     27  22  80 CALM      30.52S
HOT SPRINGS VA CLEAR     27  16  63 SE9       30.42S
LYNCHBURG      CLEAR     36  22  56 N3        30.52R
DANVILLE       CLEAR     33  26  75 CALM      30.51R
MARTINSVILLE   CLEAR     29  27  92 CALM      30.52R
ROANOKE        CLEAR     37  19  48 SE3       30.52R
BLACKSBURG     CLEAR     30  23  74 CALM      30.48R
DUBLIN*        CLEAR     31  20  64 CALM      30.46R
MARION*        CLEAR     33  20  58 E9        30.44S
HILLSVILLE*    CLEAR     32  16  51 CALM      30.45R
RICHLANDS*     SUNNY     40  21  47 SE12G22   30.35R
WISE*          CLEAR     37  19  48 S12G17    30.33S
ABINGDON*      CLEAR     40  22  47 E12       30.37R
$$

MDZ021>025-VAZ099-100-170900-
SOUTHERN MARYLAND AND THE DELMARVA PENINSULA

CITY           SKY/WX    TMP DP  RH WIND       PRES   REMARKS
PATUXENT RIVER CLEAR     37  28  70 E7        30.55R
BAY BRIDGE APT CLEAR     36  30  80 CALM      30.57S
LEONARDTOWN    CLEAR     32  30  93 CALM      30.56S
DOVER          CLEAR     39  29  66 NE9       30.57R
GEORGETOWN     CLEAR     32  28  85 CALM      30.56R
EASTON         CLEAR     34  32  94 CALM      30.60R
CAMBRIDGE      CLEAR     34  32  93 CALM      30.55S
SALISBURY      CLEAR     34  29  82 CALM      30.54R
OCEAN CITY     CLEAR     42  28  57 NE8       30.53S
WALLOPS ISLAND CLEAR     43  29  57 E14       30.53R
ACCOMACK*      NOT AVBL
$$

NCZ012>017-030>032-170900-
EASTERN NORTH CAROLINA

CITY           SKY/WX    TMP DP  RH WIND       PRES   REMARKS
ELIZABETH CITY CLEAR     43  33  68 NE12      30.47R
AHOSKIE*       CLEAR     33  31  94 CALM      30.50S
EDENTON*       CLEAR     36  32  87 NE6       30.47R
CURRITUCK*     CLEAR     43  33  66 N10G17    30.48S
KILL DEVIL HLS PTCLDY    44  36  74 N12G21    30.43S
MANTEO         PTCLDY    44  37  75 NE17G25   30.44S
CAPE HATTERAS  CLOUDY    48  41  76 NE15G25   30.39S
GOLDSBORO      CLEAR     37  30  75 N6        30.45R
WASHINGTON     CLEAR     38  33  82 NE9       30.45S
GREENVILLE     CLEAR     36  32  87 N3        30.47R
NEW BERN       CLEAR     41  33  73 N9        30.44S
WILMINGTON     CLEAR     40  31  70 N12       30.41S
$$

VAZ048-170900-
ELSEWHERE

CITY           SKY/WX    TMP DP  RH WIND       PRES   REMARKS
HARRISBURG PA  MOCLDY    35  19  52 CALM      30.57S
BALTIMORE      CLEAR     33  26  75 CALM      30.55S
ANNAPOLIS      CLEAR     41  34  76 E5        30.56R
ANDREWS AFB    CLEAR     35  25  66 E2        30.55S
WILMINGTON DE  CLEAR     37  23  56 NE6       30.58S
PHILADELPHIA   CLEAR     38  21  50 NE10      30.59S
WILDWOOD NJ*   CLEAR     34  27  75 N7        30.57R
ATLANTIC CITY  CLEAR     29  25  85 MISG      30.56S
HENDERSON NC   CLEAR     32  30  92 CALM      30.49S
GREENSBORO     CLEAR     36  25  64 E3        30.47R
ROCKY MOUNT      N/A    N/A N/A N/A MISG      30.49R
FAYETTEVILLE   CLEAR     36  31  82 NE7       30.45S
CHARLOTTE      CLEAR     41  29  62 E7        30.46R
$$

VAZ100-170900-
MARINE

STATION/POSITION TIME  TEMP    WIND        PRES    WAVE   SWELL
                       AIR SEA DIR/SP/G            HT/PER HT/PER
                 (UTC) (F)     (DEG/KT/KT) (MB)    (FT/S) (FT/S)
44066 TX TWR #4  0800   41 44   40/ 21/ 23 1034.4S   6/10   3/10
CAPE MAY NJ      0800   38 53   60/  3/  5 1034.5R
LEWES DE         0800   44 49   70/ 15/ 17 1033.8R
15NM E FENWICK I 0800   44 45              1033.8R   5/10
OCEAN-CITY-INLET 0800   43 45   80/  8/ 12 1033.6S
WACHAPREAGUE VA  0800   43 53   50/ 16/ 19 1032.9R
THOMAS POINT MD  0800   43 52  100/  6/  7 1035.4R
GOOSES REEF MD   0800   43     100/  8/ 10 1035.4F
COVE POINT MD    0800   41      90/  5/  7 1034.5R
SOLOMONS ISLAND  0800      51                N/A
BISHOPS HEAD MD  0800   42 52   40/  6/ 10 1034.1R
PINEY POINT MD   0800           60/  4/  4   N/A
POTOMAC MD       0800   44      90/ 14/ 16 1033.3S
CAMBRIDGE MD     0800   41 56   40/  5/  6 1034.3S
LEWISETTA VA     0800   45 51   70/ 14/ 17 1033.8S
RAPPAHANNOCK LGT 0800           40/ 13/ 15 1033.7R
STINGRAY PT      0800   45      70/ 16/ 17 1033.2R
YORK RVR RNG VA  0800   44      60/ 16/ 18 1032.5R
YORKTOWN VA      0800   44 55   50/ 11/ 13 1033.1R
JAMESTOWN VA     0800   40      30/  4/  6   N/A
DOMINION TERM VA 0800   43      40/  6/  9 1032.9R
KIPTOPEKE VA     0800      54   80/  7/  9   N/A
CHES BAY BRIDGE  0800   44 51   50/ 19/ 21 1032.6R
CAPE HENRY VA    0800           50/ 19/ 21   N/A
CHESAPEAKE LGHT  0700   43      60/ 19/ 20 1032.8R
WILLOUBY STN VA  0800   44      60/ 15/ 18 1032.0R
S CRANEY ISL VA  0800           30/ 12/ 15 1033.0R
CAPE HENRY BUOY  0800      45                N/A     5/ 8   2/11
1ST LANDING BUOY 0800      46                N/A     5/10   3/10
64NM E OF VA BCH 0800   49      20/ 21/ 27 1030.0R   9/ 9   5/ 9
DUCK PIER NC     0800   45 47   20/ 24/ 27 1029.9R
44100 DUCK FRF   0800      47                N/A     7/ 9   2/11
44056 DUCK FRF   0800      47                N/A     6/11   2/11
OREGON INLET NC  0800   45 50  360/ 16/ 23 1030.0S
HATTERAS NC      0800   49 57   10/ 17/ 26 1029.1S
CAPE LOOKOUT NC  0800   47      20/ 19/ 23 1028.9R
FRYING PAN SHLS  0800   53 62   50/ 23/ 31 1026.6F   8/ 7   2/14
$$



USA.gov is the U.S. government's official web portal to all federal, state and local government web resources and services.